Regional Weather Roundup
Issued by NWS

Home | Current Version | Previous Version | Text Only | Print | Product List | Glossary On
Versions: 1 2 3 4 5 6 7 8 9 10 11 12 13 14 15 16 17 18 19 20 21 22 23 24 25 26 27
000
ASUS45 KREV 220310
RWRNV
NEVADA REGIONAL WEATHER ROUNDUP
NATIONAL WEATHER SERVICE RENO NV
800 PM PDT MON AUG 21 2017

NOTE: "FAIR" INDICATES FEW OR NO CLOUDS BELOW 12,000 FEET WITH NO
SIGNIFICANT WEATHER AND/OR OBSTRUCTIONS TO VISIBILITY.

NVZ001-003-004-220400-
WESTERN NEVADA

CITY           SKY/WX    TMP DP  RH WIND       PRES   REMARKS
RENO           MOCLDY    81  51  35 W8        30.11R
CARSON CITY    MOCLDY    77  45  31 E9        30.16R
MINDEN         FAIR      72  48  43 S7        30.16R
FALLON         CLOUDY    85  37  18 S17G35    30.07R
LOVELOCK       CLEAR     80  45  28 SW7       30.03R
HAWTHORNE      CLEAR     82  34  17 SE8       30.10R
$$

NVZ002-CAZ072-073-220400-
NORTHERN AND CENTRAL SIERRA

CITY           SKY/WX    TMP DP  RH WIND       PRES   REMARKS
S. LAKE TAHOE  PTCLDY    61  47  59 CALM      30.28R
TRUCKEE        PTCLDY    57  55  94 CALM      30.27R
SQUAW VLY 8000   N/A     55  45  67 SW10        N/A
SUSANVILLE     CLEAR     81  43  26 SW7       30.07R
MAMMOTH LAKES  FAIR      65  37  35 W8        30.32R
BRIDGEPORT     FAIR      64  45  49 VRB3      30.27S
$$

NVZ030-031-036-220400-
NORTHERN NEVADA

CITY           SKY/WX    TMP DP  RH WIND       PRES   REMARKS
ELKO           PTCLDY    78  31  17 E6        30.13R
WINNEMUCCA     CLEAR     83  35  18 N6        30.07R
WENDOVER       CLEAR     82  36  19 CALM      30.10R
$$

NVZ035-037-220400-
CENTRAL NEVADA

CITY           SKY/WX    TMP DP  RH WIND       PRES   REMARKS
ELY            MOCLDY    68  38  33 S9        30.25R
EUREKA           N/A     75  36  24 CALM      30.20R
$$

NVZ013-014-220400-
SOUTH CENTRAL NEVADA

CITY           SKY/WX    TMP DP  RH WIND       PRES   REMARKS
TONOPAH        MOCLDY    76  42  29 S5        30.22R
$$

NVZ017-020-022-220400-
SOUTHERN NEVADA

CITY           SKY/WX    TMP DP  RH WIND       PRES   REMARKS
LAS VEGAS      PTCLDY    88  53  30 N5        30.00S
N. LAS VEGAS   CLEAR     88  50  27 NE3       30.00R
NELLIS AFB     CLEAR     87  52  29 NE5       29.98R
HENDERSON      CLEAR     85  54  34 NE6       30.04R
MERCURY        MOCLDY    83  50  31 SE7       30.07S
$$




USA.gov is the U.S. government's official web portal to all federal, state and local government web resources and services.